This is the latest recevied weather packets stored in our database for station/object IR3AS. If no packets are shown the sender has not sent any weather packets the latest 10 day(s).
| Time | Temp. | Humidity | Pressure | Rain* | Wind** | Luminosity | Snow |
|---|---|---|---|---|---|---|---|
| 1788076494 | 15° C | 81% | 868.2 hPa | 0 mm | - | - | - |
| 1788076193 | 14.44° C | 81% | 868.3 hPa | 0 mm | - | - | - |
| 1788075893 | 14.44° C | 81% | 868.2 hPa | 0 mm | - | - | - |
| 1788075593 | 14.44° C | 81% | 868.1 hPa | 0 mm | - | - | - |
| 1788075295 | 14.44° C | 81% | 868.1 hPa | 0 mm | - | - | - |
| 1788074993 | 14.44° C | 81% | 867.8 hPa | 0 mm | - | - | - |
| 1788074693 | 14.44° C | 81% | 865.7 hPa | 0 mm | - | - | - |
| 1788074393 | 15° C | 82% | 864.2 hPa | 0 mm | - | - | - |
| 1788074095 | 15° C | 82% | 864.1 hPa | 0 mm | - | - | - |
| 1788073793 | 15° C | 81% | 864.4 hPa | 0 mm | - | - | - |
| 1788073493 | 15.56° C | 81% | 864.4 hPa | 0 mm | - | - | - |
| 1788073193 | 15° C | 81% | 864.3 hPa | 0 mm | - | - | - |
| 1788072893 | 13.89° C | 83% | 864.3 hPa | 0 mm | - | - | - |
| 1788072593 | 13.33° C | 82% | 864 hPa | 0 mm | - | - | - |
| 1788072293 | 12.78° C | 82% | 864.6 hPa | 0 mm | - | - | - |
| 1788071993 | 12.78° C | 82% | 864.2 hPa | 0 mm | - | - | - |
| 1788071693 | 13.33° C | 81% | 864 hPa | 0 mm | - | - | - |
| 1788071393 | 13.89° C | 80% | 863.9 hPa | 0 mm | - | - | - |
| 1788071093 | 14.44° C | 79% | 863.8 hPa | 0 mm | - | - | - |
| 1788070793 | 13.89° C | 81% | 863.4 hPa | 0 mm | - | - | - |
| 1788070493 | 12.78° C | 83% | 863.4 hPa | 0 mm | - | - | - |
| 1788070193 | 12.22° C | 84% | 863 hPa | 0 mm | - | - | - |
| 1788069893 | 11.67° C | 85% | 863.3 hPa | 0 mm | - | - | - |
| 1788069593 | 11.67° C | 85% | 863.1 hPa | 0 mm | - | - | - |
| 1788069294 | 11.67° C | 84% | 863.2 hPa | 0 mm | - | - | - |
* Rain latest hour (hover to see other rain measurements)
** Current wind speed in m/s (hover to see current wind gust speed)